#datetime,building,power
2022-02-23T00:00:00,sdl,13.04
2022-02-23T00:01:00,sdl,13.45
2022-02-23T00:02:00,sdl,11.19
2022-02-23T00:03:00,sdl,10.76
2022-02-23T00:04:00,sdl,10.71
2022-02-23T00:05:00,sdl,10.77
2022-02-23T00:06:00,sdl,10.75
2022-02-23T00:07:00,sdl,10.72
2022-02-23T00:08:00,sdl,10.67
2022-02-23T00:09:00,sdl,11.19
2022-02-23T00:10:00,sdl,10.63
2022-02-23T00:11:00,sdl,10.64
2022-02-23T00:12:00,sdl,10.82
2022-02-23T00:13:00,sdl,10.83
2022-02-23T00:14:00,sdl,11.23
2022-02-23T00:15:00,sdl,11.75
2022-02-23T00:16:00,sdl,11.16
2022-02-23T00:17:00,sdl,11.07
2022-02-23T00:18:00,sdl,13.29
2022-02-23T00:19:00,sdl,13.23
2022-02-23T00:20:00,sdl,13.24
2022-02-23T00:21:00,sdl,13.14
2022-02-23T00:22:00,sdl,13.13
2022-02-23T00:23:00,sdl,13.11
2022-02-23T00:24:00,sdl,13.58
2022-02-23T00:25:00,sdl,13.19
2022-02-23T00:26:00,sdl,13.19
2022-02-23T00:27:00,sdl,13.26
2022-02-23T00:28:00,sdl,13.28
2022-02-23T00:29:00,sdl,13.23
2022-02-23T00:30:00,sdl,13.17
2022-02-23T00:31:00,sdl,13.19
2022-02-23T00:32:00,sdl,13.19
2022-02-23T00:33:00,sdl,13.24
2022-02-23T00:34:00,sdl,11.32
2022-02-23T00:35:00,sdl,11.81
2022-02-23T00:36:00,sdl,10.89
2022-02-23T00:37:00,sdl,10.96
2022-02-23T00:38:00,sdl,10.96
2022-02-23T00:39:00,sdl,11.06
2022-02-23T00:40:00,sdl,11.40
2022-02-23T00:41:00,sdl,10.89
2022-02-23T00:42:00,sdl,10.88
2022-02-23T00:43:00,sdl,12.05
2022-02-23T00:44:00,sdl,10.99
2022-02-23T00:45:00,sdl,10.94
2022-02-23T00:46:00,sdl,10.92
2022-02-23T00:47:00,sdl,10.94
2022-02-23T00:48:00,sdl,10.85
2022-02-23T00:49:00,sdl,11.05
2022-02-23T00:50:00,sdl,11.03
2022-02-23T00:51:00,sdl,11.06
2022-02-23T00:52:00,sdl,11.06
2022-02-23T00:53:00,sdl,10.64
2022-02-23T00:54:00,sdl,10.55
2022-02-23T00:55:00,sdl,11.00
2022-02-23T00:56:00,sdl,10.38
2022-02-23T00:57:00,sdl,10.54
2022-02-23T00:58:00,sdl,10.52
2022-02-23T00:59:00,sdl,10.55
2022-02-23T01:00:00,sdl,10.52
2022-02-23T01:01:00,sdl,10.56
2022-02-23T01:02:00,sdl,10.60
2022-02-23T01:03:00,sdl,10.56
2022-02-23T01:04:00,sdl,10.54
2022-02-23T01:05:00,sdl,10.25
2022-02-23T01:06:00,sdl,10.49
2022-02-23T01:07:00,sdl,10.23
2022-02-23T01:08:00,sdl,10.25
2022-02-23T01:09:00,sdl,10.25
2022-02-23T01:10:00,sdl,10.07
2022-02-23T01:11:00,sdl,12.30
2022-02-23T01:12:00,sdl,12.42
2022-02-23T01:13:00,sdl,12.40
2022-02-23T01:14:00,sdl,12.51
2022-02-23T01:15:00,sdl,13.01
2022-02-23T01:16:00,sdl,12.72
2022-02-23T01:17:00,sdl,12.62
2022-02-23T01:18:00,sdl,12.53
2022-02-23T01:19:00,sdl,12.43
2022-02-23T01:20:00,sdl,12.44
2022-02-23T01:21:00,sdl,12.44
2022-02-23T01:22:00,sdl,12.44
2022-02-23T01:23:00,sdl,12.54
2022-02-23T01:24:00,sdl,10.29
2022-02-23T01:25:00,sdl,10.25
2022-02-23T01:26:00,sdl,10.38
2022-02-23T01:27:00,sdl,10.33
2022-02-23T01:28:00,sdl,10.30
2022-02-23T01:29:00,sdl,10.34
2022-02-23T01:30:00,sdl,10.32
2022-02-23T01:31:00,sdl,10.35
2022-02-23T01:32:00,sdl,10.29
2022-02-23T01:33:00,sdl,10.23
2022-02-23T01:34:00,sdl,10.22
2022-02-23T01:35:00,sdl,10.74
2022-02-23T01:36:00,sdl,10.20
2022-02-23T01:37:00,sdl,10.19
2022-02-23T01:38:00,sdl,12.51
2022-02-23T01:39:00,sdl,12.89
2022-02-23T01:40:00,sdl,12.88
2022-02-23T01:41:00,sdl,12.57
2022-02-23T01:42:00,sdl,12.53
2022-02-23T01:43:00,sdl,12.47
2022-02-23T01:44:00,sdl,12.45
2022-02-23T01:45:00,sdl,12.46
2022-02-23T01:46:00,sdl,12.45
2022-02-23T01:47:00,sdl,12.40
2022-02-23T01:48:00,sdl,12.20
2022-02-23T01:49:00,sdl,12.19
2022-02-23T01:50:00,sdl,12.32
2022-02-23T01:51:00,sdl,10.09
2022-02-23T01:52:00,sdl,10.10
2022-02-23T01:53:00,sdl,10.05
2022-02-23T01:54:00,sdl,10.62
2022-02-23T01:55:00,sdl,10.68
2022-02-23T01:56:00,sdl,10.14
2022-02-23T01:57:00,sdl,10.11
2022-02-23T01:58:00,sdl,10.16
2022-02-23T01:59:00,sdl,10.09
2022-02-23T02:00:00,sdl,10.68
2022-02-23T02:01:00,sdl,10.62
2022-02-23T02:02:00,sdl,12.83
2022-02-23T02:03:00,sdl,10.68
2022-02-23T02:04:00,sdl,10.63
2022-02-23T02:05:00,sdl,11.27
2022-02-23T02:06:00,sdl,11.27
2022-02-23T02:07:00,sdl,10.52
2022-02-23T02:08:00,sdl,10.40
2022-02-23T02:09:00,sdl,10.29
2022-02-23T02:10:00,sdl,10.32
2022-02-23T02:11:00,sdl,10.32
2022-02-23T02:12:00,sdl,10.37
2022-02-23T02:13:00,sdl,10.72
2022-02-23T02:14:00,sdl,11.18
2022-02-23T02:15:00,sdl,10.53
2022-02-23T02:16:00,sdl,11.15
2022-02-23T02:17:00,sdl,10.54
2022-02-23T02:18:00,sdl,10.56
2022-02-23T02:19:00,sdl,10.45
2022-02-23T02:20:00,sdl,10.37
2022-02-23T02:21:00,sdl,10.37
2022-02-23T02:22:00,sdl,10.35
2022-02-23T02:23:00,sdl,10.40
2022-02-23T02:24:00,sdl,13.35
2022-02-23T02:25:00,sdl,12.66
2022-02-23T02:26:00,sdl,12.68
2022-02-23T02:27:00,sdl,12.71
2022-02-23T02:28:00,sdl,13.13
2022-02-23T02:29:00,sdl,12.75
2022-02-23T02:30:00,sdl,12.75
2022-02-23T02:31:00,sdl,12.74
2022-02-23T02:32:00,sdl,12.74
2022-02-23T02:33:00,sdl,12.64
2022-02-23T02:34:00,sdl,13.18
2022-02-23T02:35:00,sdl,12.70
2022-02-23T02:36:00,sdl,12.75
2022-02-23T02:37:00,sdl,12.74
2022-02-23T02:38:00,sdl,12.76
2022-02-23T02:39:00,sdl,12.42
2022-02-23T02:40:00,sdl,10.22
2022-02-23T02:41:00,sdl,10.26
2022-02-23T02:42:00,sdl,10.19
2022-02-23T02:43:00,sdl,10.48
2022-02-23T02:44:00,sdl,10.47
2022-02-23T02:45:00,sdl,9.97
2022-02-23T02:46:00,sdl,9.99
2022-02-23T02:47:00,sdl,9.96
2022-02-23T02:48:00,sdl,9.97
2022-02-23T02:49:00,sdl,9.95
2022-02-23T02:50:00,sdl,9.98
2022-02-23T02:51:00,sdl,9.96
2022-02-23T02:52:00,sdl,10.07
2022-02-23T02:53:00,sdl,11.23
2022-02-23T02:54:00,sdl,10.11
2022-02-23T02:55:00,sdl,10.09
2022-02-23T02:56:00,sdl,12.50
2022-02-23T02:57:00,sdl,12.71
2022-02-23T02:58:00,sdl,12.65
2022-02-23T02:59:00,sdl,12.55
2022-02-23T03:00:00,sdl,12.56
2022-02-23T03:01:00,sdl,12.66
2022-02-23T03:02:00,sdl,12.60
2022-02-23T03:03:00,sdl,12.67
2022-02-23T03:04:00,sdl,12.75
2022-02-23T03:05:00,sdl,12.75
2022-02-23T03:06:00,sdl,10.47
2022-02-23T03:07:00,sdl,11.06
2022-02-23T03:08:00,sdl,11.05
2022-02-23T03:09:00,sdl,10.62
2022-02-23T03:10:00,sdl,10.47
2022-02-23T03:11:00,sdl,10.57
2022-02-23T03:12:00,sdl,11.21
2022-02-23T03:13:00,sdl,11.21
2022-02-23T03:14:00,sdl,10.85
2022-02-23T03:15:00,sdl,11.14
2022-02-23T03:16:00,sdl,11.33
2022-02-23T03:17:00,sdl,11.28
2022-02-23T03:18:00,sdl,11.27
2022-02-23T03:19:00,sdl,10.46
2022-02-23T03:20:00,sdl,9.89
2022-02-23T03:21:00,sdl,9.92
2022-02-23T03:22:00,sdl,9.86
2022-02-23T03:23:00,sdl,9.91
2022-02-23T03:24:00,sdl,9.81
2022-02-23T03:25:00,sdl,9.78
2022-02-23T03:26:00,sdl,9.82
2022-02-23T03:27:00,sdl,10.38
2022-02-23T03:28:00,sdl,9.72
2022-02-23T03:29:00,sdl,9.82
2022-02-23T03:30:00,sdl,9.71
2022-02-23T03:31:00,sdl,9.86
2022-02-23T03:32:00,sdl,9.71
2022-02-23T03:33:00,sdl,9.79
2022-02-23T03:34:00,sdl,11.95
2022-02-23T03:35:00,sdl,11.87
2022-02-23T03:36:00,sdl,11.86
2022-02-23T03:37:00,sdl,11.93
2022-02-23T03:38:00,sdl,12.40
2022-02-23T03:39:00,sdl,11.89
2022-02-23T03:40:00,sdl,12.41
2022-02-23T03:41:00,sdl,12.35
2022-02-23T03:42:00,sdl,12.37
2022-02-23T03:43:00,sdl,12.85
2022-02-23T03:44:00,sdl,12.36
2022-02-23T03:45:00,sdl,12.43
2022-02-23T03:46:00,sdl,12.49
2022-02-23T03:47:00,sdl,12.41
2022-02-23T03:48:00,sdl,12.40
2022-02-23T03:49:00,sdl,10.36
2022-02-23T03:50:00,sdl,10.76
2022-02-23T03:51:00,sdl,10.13
2022-02-23T03:52:00,sdl,10.22
2022-02-23T03:53:00,sdl,10.27
2022-02-23T03:54:00,sdl,10.15
2022-02-23T03:55:00,sdl,10.10
2022-02-23T03:56:00,sdl,10.21
2022-02-23T03:57:00,sdl,10.19
2022-02-23T03:58:00,sdl,10.11
2022-02-23T03:59:00,sdl,10.55
2022-02-23T04:00:00,sdl,10.02
2022-02-23T04:01:00,sdl,10.01
2022-02-23T04:02:00,sdl,10.03
2022-02-23T04:03:00,sdl,10.01
2022-02-23T04:04:00,sdl,10.62
2022-02-23T04:05:00,sdl,10.02
2022-02-23T04:06:00,sdl,9.70
2022-02-23T04:07:00,sdl,9.78
2022-02-23T04:08:00,sdl,9.79
2022-02-23T04:09:00,sdl,13.25
2022-02-23T04:10:00,sdl,12.06
2022-02-23T04:11:00,sdl,12.57
2022-02-23T04:12:00,sdl,12.84
2022-02-23T04:13:00,sdl,12.95
2022-02-23T04:14:00,sdl,11.91
2022-02-23T04:15:00,sdl,11.87
2022-02-23T04:16:00,sdl,11.89
2022-02-23T04:17:00,sdl,11.89
2022-02-23T04:18:00,sdl,9.73
2022-02-23T04:19:00,sdl,10.26
2022-02-23T04:20:00,sdl,9.73
2022-02-23T04:21:00,sdl,10.21
2022-02-23T04:22:00,sdl,10.31
2022-02-23T04:23:00,sdl,10.23
2022-02-23T04:24:00,sdl,10.37
2022-02-23T04:25:00,sdl,10.28
2022-02-23T04:26:00,sdl,10.38
2022-02-23T04:27:00,sdl,10.23
2022-02-23T04:28:00,sdl,10.25
2022-02-23T04:29:00,sdl,10.10
2022-02-23T04:30:00,sdl,10.19
2022-02-23T04:31:00,sdl,10.33
2022-02-23T04:32:00,sdl,10.37
2022-02-23T04:33:00,sdl,10.40
2022-02-23T04:34:00,sdl,10.43
2022-02-23T04:35:00,sdl,10.66
2022-02-23T04:36:00,sdl,10.35
2022-02-23T04:37:00,sdl,10.46
2022-02-23T04:38:00,sdl,10.45
2022-02-23T04:39:00,sdl,10.44
2022-02-23T04:40:00,sdl,12.66
2022-02-23T04:41:00,sdl,12.62
2022-02-23T04:42:00,sdl,13.17
2022-02-23T04:43:00,sdl,12.65
2022-02-23T04:44:00,sdl,12.70
2022-02-23T04:45:00,sdl,17.08
2022-02-23T04:46:00,sdl,17.02
2022-02-23T04:47:00,sdl,16.61
2022-02-23T04:48:00,sdl,16.43
2022-02-23T04:49:00,sdl,16.41
2022-02-23T04:50:00,sdl,16.52
2022-02-23T04:51:00,sdl,16.89
2022-02-23T04:52:00,sdl,16.58
2022-02-23T04:53:00,sdl,16.51
2022-02-23T04:54:00,sdl,16.47
2022-02-23T04:55:00,sdl,16.67
2022-02-23T04:56:00,sdl,14.32
2022-02-23T04:57:00,sdl,14.42
2022-02-23T04:58:00,sdl,14.39
2022-02-23T04:59:00,sdl,14.35
2022-02-23T05:00:00,sdl,13.88
2022-02-23T05:01:00,sdl,13.76
2022-02-23T05:02:00,sdl,13.83
2022-02-23T05:03:00,sdl,13.74
2022-02-23T05:04:00,sdl,14.47
2022-02-23T05:05:00,sdl,13.74
2022-02-23T05:06:00,sdl,13.69
2022-02-23T05:07:00,sdl,13.78
2022-02-23T05:08:00,sdl,13.83
2022-02-23T05:09:00,sdl,13.73
2022-02-23T05:10:00,sdl,13.73
2022-02-23T05:11:00,sdl,13.66
2022-02-23T05:12:00,sdl,13.94
2022-02-23T05:13:00,sdl,13.56
2022-02-23T05:14:00,sdl,13.59
2022-02-23T05:15:00,sdl,13.67
2022-02-23T05:16:00,sdl,13.63
2022-02-23T05:17:00,sdl,13.62
2022-02-23T05:18:00,sdl,14.01
2022-02-23T05:19:00,sdl,14.08
2022-02-23T05:20:00,sdl,14.06
2022-02-23T05:21:00,sdl,13.74
2022-02-23T05:22:00,sdl,13.74
2022-02-23T05:23:00,sdl,13.72
2022-02-23T05:24:00,sdl,13.72
2022-02-23T05:25:00,sdl,15.84
2022-02-23T05:26:00,sdl,15.76
2022-02-23T05:27:00,sdl,16.32
2022-02-23T05:28:00,sdl,15.79
2022-02-23T05:29:00,sdl,15.76
2022-02-23T05:30:00,sdl,15.76
2022-02-23T05:31:00,sdl,15.76
2022-02-23T05:32:00,sdl,15.92
2022-02-23T05:33:00,sdl,16.12
2022-02-23T05:34:00,sdl,14.00
2022-02-23T05:35:00,sdl,13.93
2022-02-23T05:36:00,sdl,13.93
2022-02-23T05:37:00,sdl,13.84
2022-02-23T05:38:00,sdl,14.35
2022-02-23T05:39:00,sdl,13.86
2022-02-23T05:40:00,sdl,13.64
2022-02-23T05:41:00,sdl,13.61
2022-02-23T05:42:00,sdl,13.61
2022-02-23T05:43:00,sdl,13.66
2022-02-23T05:44:00,sdl,13.69
2022-02-23T05:45:00,sdl,13.70
2022-02-23T05:46:00,sdl,13.72
2022-02-23T05:47:00,sdl,13.81
2022-02-23T05:48:00,sdl,13.90
2022-02-23T05:49:00,sdl,16.02
2022-02-23T05:50:00,sdl,16.52
2022-02-23T05:51:00,sdl,16.41
2022-02-23T05:52:00,sdl,16.45
2022-02-23T05:53:00,sdl,16.11
2022-02-23T05:54:00,sdl,16.01
2022-02-23T05:55:00,sdl,16.05
2022-02-23T05:56:00,sdl,16.04
2022-02-23T05:57:00,sdl,15.99
2022-02-23T05:58:00,sdl,16.04
2022-02-23T05:59:00,sdl,15.97
2022-02-23T06:00:00,sdl,16.22
2022-02-23T06:01:00,sdl,16.42
2022-02-23T06:02:00,sdl,16.39
2022-02-23T06:03:00,sdl,17.49
2022-02-23T06:04:00,sdl,17.55
2022-02-23T06:05:00,sdl,17.55
2022-02-23T06:06:00,sdl,15.41
2022-02-23T06:07:00,sdl,15.52
2022-02-23T06:08:00,sdl,15.63
2022-02-23T06:09:00,sdl,15.58
2022-02-23T06:10:00,sdl,15.65
2022-02-23T06:11:00,sdl,15.61
2022-02-23T06:12:00,sdl,15.55
2022-02-23T06:13:00,sdl,15.24
2022-02-23T06:14:00,sdl,14.70
2022-02-23T06:15:00,sdl,14.56
2022-02-23T06:16:00,sdl,14.32
2022-02-23T06:17:00,sdl,14.41
2022-02-23T06:18:00,sdl,14.27
2022-02-23T06:19:00,sdl,14.31
2022-02-23T06:20:00,sdl,14.72
2022-02-23T06:21:00,sdl,14.72
2022-02-23T06:22:00,sdl,14.39
2022-02-23T06:23:00,sdl,14.28
2022-02-23T06:24:00,sdl,14.12
2022-02-23T06:25:00,sdl,14.11
2022-02-23T06:26:00,sdl,14.07
2022-02-23T06:27:00,sdl,14.07
2022-02-23T06:28:00,sdl,14.07
2022-02-23T06:29:00,sdl,14.08
2022-02-23T06:30:00,sdl,14.05
2022-02-23T06:31:00,sdl,14.11
2022-02-23T06:32:00,sdl,14.08
2022-02-23T06:33:00,sdl,14.29
2022-02-23T06:34:00,sdl,14.22
2022-02-23T06:35:00,sdl,14.15
2022-02-23T06:36:00,sdl,14.70
2022-02-23T06:37:00,sdl,14.14
2022-02-23T06:38:00,sdl,13.90
2022-02-23T06:39:00,sdl,13.93
2022-02-23T06:40:00,sdl,15.18
2022-02-23T06:41:00,sdl,13.94
2022-02-23T06:42:00,sdl,16.16
2022-02-23T06:43:00,sdl,16.20
2022-02-23T06:44:00,sdl,15.80
2022-02-23T06:45:00,sdl,15.88
2022-02-23T06:46:00,sdl,15.89
2022-02-23T06:47:00,sdl,15.98
2022-02-23T06:48:00,sdl,15.80
2022-02-23T06:49:00,sdl,15.80
2022-02-23T06:50:00,sdl,15.72
2022-02-23T06:51:00,sdl,15.64
2022-02-23T06:52:00,sdl,15.95
2022-02-23T06:53:00,sdl,15.93
2022-02-23T06:54:00,sdl,16.57
2022-02-23T06:55:00,sdl,15.37
2022-02-23T06:56:00,sdl,15.39
2022-02-23T06:57:00,sdl,15.38
2022-02-23T06:58:00,sdl,15.53
2022-02-23T06:59:00,sdl,13.79
2022-02-23T07:00:00,sdl,13.37
2022-02-23T07:01:00,sdl,13.33
2022-02-23T07:02:00,sdl,13.35
2022-02-23T07:03:00,sdl,14.05
2022-02-23T07:04:00,sdl,14.08
2022-02-23T07:05:00,sdl,13.32
2022-02-23T07:06:00,sdl,13.89
2022-02-23T07:07:00,sdl,13.32
2022-02-23T07:08:00,sdl,13.30
2022-02-23T07:09:00,sdl,13.63
2022-02-23T07:10:00,sdl,13.38
2022-02-23T07:11:00,sdl,13.42
2022-02-23T07:12:00,sdl,13.51
2022-02-23T07:13:00,sdl,13.58
2022-02-23T07:14:00,sdl,13.51
2022-02-23T07:15:00,sdl,13.49
2022-02-23T07:16:00,sdl,14.63
2022-02-23T07:17:00,sdl,13.44
2022-02-23T07:18:00,sdl,16.58
2022-02-23T07:19:00,sdl,15.71
2022-02-23T07:20:00,sdl,15.58
2022-02-23T07:21:00,sdl,15.61
2022-02-23T07:22:00,sdl,16.78
2022-02-23T07:23:00,sdl,16.04
2022-02-23T07:24:00,sdl,15.71
2022-02-23T07:25:00,sdl,15.57
2022-02-23T07:26:00,sdl,15.59
2022-02-23T07:27:00,sdl,13.34
2022-02-23T07:28:00,sdl,13.34
2022-02-23T07:29:00,sdl,13.35
2022-02-23T07:30:00,sdl,13.53
2022-02-23T07:31:00,sdl,13.50
2022-02-23T07:32:00,sdl,13.47
2022-02-23T07:33:00,sdl,13.49
2022-02-23T07:34:00,sdl,13.50
2022-02-23T07:35:00,sdl,13.52
2022-02-23T07:36:00,sdl,13.48
2022-02-23T07:37:00,sdl,13.44
2022-02-23T07:38:00,sdl,13.45
2022-02-23T07:39:00,sdl,13.41
2022-02-23T07:40:00,sdl,13.41
2022-02-23T07:41:00,sdl,13.38
2022-02-23T07:42:00,sdl,13.34
2022-02-23T07:43:00,sdl,13.52
2022-02-23T07:44:00,sdl,13.39
2022-02-23T07:45:00,sdl,13.92
2022-02-23T07:46:00,sdl,13.45
2022-02-23T07:47:00,sdl,13.55
2022-02-23T07:48:00,sdl,13.56
2022-02-23T07:49:00,sdl,15.71
2022-02-23T07:50:00,sdl,16.14
2022-02-23T07:51:00,sdl,16.33
2022-02-23T07:52:00,sdl,16.38
2022-02-23T07:53:00,sdl,16.03
2022-02-23T07:54:00,sdl,16.05
2022-02-23T07:55:00,sdl,15.91
2022-02-23T07:56:00,sdl,16.06
2022-02-23T07:57:00,sdl,16.04
2022-02-23T07:58:00,sdl,16.13
2022-02-23T07:59:00,sdl,16.31
2022-02-23T08:00:00,sdl,16.76
2022-02-23T08:01:00,sdl,17.81
2022-02-23T08:02:00,sdl,16.79
2022-02-23T08:03:00,sdl,16.68
2022-02-23T08:04:00,sdl,16.28
2022-02-23T08:05:00,sdl,15.94
2022-02-23T08:06:00,sdl,13.71
2022-02-23T08:07:00,sdl,13.65
2022-02-23T08:08:00,sdl,13.78
2022-02-23T08:09:00,sdl,14.22
2022-02-23T08:10:00,sdl,13.74
2022-02-23T08:11:00,sdl,13.75
2022-02-23T08:12:00,sdl,14.14
2022-02-23T08:13:00,sdl,13.85
2022-02-23T08:14:00,sdl,13.87
2022-02-23T08:15:00,sdl,13.96
2022-02-23T08:16:00,sdl,14.98
2022-02-23T08:17:00,sdl,14.95
2022-02-23T08:18:00,sdl,14.97
2022-02-23T08:19:00,sdl,17.41
2022-02-23T08:20:00,sdl,20.61
2022-02-23T08:21:00,sdl,20.44
2022-02-23T08:22:00,sdl,20.62
2022-02-23T08:23:00,sdl,20.18
2022-02-23T08:24:00,sdl,20.77
2022-02-23T08:25:00,sdl,21.19
2022-02-23T08:26:00,sdl,21.58
2022-02-23T08:27:00,sdl,21.87
2022-02-23T08:28:00,sdl,22.21
2022-02-23T08:29:00,sdl,22.33
2022-02-23T08:30:00,sdl,22.48
2022-02-23T08:31:00,sdl,22.58
2022-02-23T08:32:00,sdl,22.88
2022-02-23T08:33:00,sdl,21.64
2022-02-23T08:34:00,sdl,21.86
2022-02-23T08:35:00,sdl,21.82
2022-02-23T08:36:00,sdl,22.16
2022-02-23T08:37:00,sdl,21.95
2022-02-23T08:38:00,sdl,22.03
2022-02-23T08:39:00,sdl,24.23
2022-02-23T08:40:00,sdl,24.25
2022-02-23T08:41:00,sdl,24.48
2022-02-23T08:42:00,sdl,24.19
2022-02-23T08:43:00,sdl,24.42
2022-02-23T08:44:00,sdl,24.80
2022-02-23T08:45:00,sdl,24.10
2022-02-23T08:46:00,sdl,24.25
2022-02-23T08:47:00,sdl,24.15
2022-02-23T08:48:00,sdl,24.32
2022-02-23T08:49:00,sdl,24.43
2022-02-23T08:50:00,sdl,22.59
2022-02-23T08:51:00,sdl,22.61
2022-02-23T08:52:00,sdl,22.54
2022-02-23T08:53:00,sdl,22.18
2022-02-23T08:54:00,sdl,22.13
2022-02-23T08:55:00,sdl,22.40
2022-02-23T08:56:00,sdl,21.86
2022-02-23T08:57:00,sdl,22.34
2022-02-23T08:58:00,sdl,22.56
2022-02-23T08:59:00,sdl,24.13
2022-02-23T09:00:00,sdl,24.16
2022-02-23T09:01:00,sdl,24.27
2022-02-23T09:02:00,sdl,23.91
2022-02-23T09:03:00,sdl,24.29
2022-02-23T09:04:00,sdl,24.41
2022-02-23T09:05:00,sdl,26.59
2022-02-23T09:06:00,sdl,27.75
2022-02-23T09:07:00,sdl,26.64
2022-02-23T09:08:00,sdl,26.53
2022-02-23T09:09:00,sdl,26.49
2022-02-23T09:10:00,sdl,26.55
2022-02-23T09:11:00,sdl,26.50
2022-02-23T09:12:00,sdl,26.46
2022-02-23T09:13:00,sdl,25.70
2022-02-23T09:14:00,sdl,25.77
2022-02-23T09:15:00,sdl,25.86
2022-02-23T09:16:00,sdl,24.93
2022-02-23T09:17:00,sdl,25.30
2022-02-23T09:18:00,sdl,26.83
2022-02-23T09:19:00,sdl,25.78
2022-02-23T09:20:00,sdl,22.95
2022-02-23T09:21:00,sdl,24.71
2022-02-23T09:22:00,sdl,23.44
2022-02-23T09:23:00,sdl,23.45
2022-02-23T09:24:00,sdl,22.90
2022-02-23T09:25:00,sdl,23.13
2022-02-23T09:26:00,sdl,22.98
2022-02-23T09:27:00,sdl,23.27
2022-02-23T09:28:00,sdl,22.94
2022-02-23T09:29:00,sdl,22.99
2022-02-23T09:30:00,sdl,22.89
2022-02-23T09:31:00,sdl,23.04
2022-02-23T09:32:00,sdl,22.70
2022-02-23T09:33:00,sdl,23.16
2022-02-23T09:34:00,sdl,23.09
2022-02-23T09:35:00,sdl,23.45
2022-02-23T09:36:00,sdl,23.48
2022-02-23T09:37:00,sdl,25.17
2022-02-23T09:38:00,sdl,24.74
2022-02-23T09:39:00,sdl,24.81
2022-02-23T09:40:00,sdl,25.62
2022-02-23T09:41:00,sdl,25.62
2022-02-23T09:42:00,sdl,26.53
2022-02-23T09:43:00,sdl,25.15
2022-02-23T09:44:00,sdl,24.75
2022-02-23T09:45:00,sdl,24.62
2022-02-23T09:46:00,sdl,24.97
2022-02-23T09:47:00,sdl,25.00
2022-02-23T09:48:00,sdl,25.02
2022-02-23T09:49:00,sdl,24.30
2022-02-23T09:50:00,sdl,24.86
2022-02-23T09:51:00,sdl,24.79
2022-02-23T09:52:00,sdl,24.99
2022-02-23T09:53:00,sdl,25.00
2022-02-23T09:54:00,sdl,27.21
2022-02-23T09:55:00,sdl,27.67
2022-02-23T09:56:00,sdl,27.77
2022-02-23T09:57:00,sdl,26.93
2022-02-23T09:58:00,sdl,26.66
2022-02-23T09:59:00,sdl,26.78
2022-02-23T10:00:00,sdl,26.57
2022-02-23T10:01:00,sdl,26.62
2022-02-23T10:02:00,sdl,27.46
2022-02-23T10:03:00,sdl,27.55
2022-02-23T10:04:00,sdl,27.51
2022-02-23T10:05:00,sdl,27.53
2022-02-23T10:06:00,sdl,27.99
2022-02-23T10:07:00,sdl,27.49
2022-02-23T10:08:00,sdl,27.55
2022-02-23T10:09:00,sdl,27.52
2022-02-23T10:10:00,sdl,27.75
2022-02-23T10:11:00,sdl,27.55
2022-02-23T10:12:00,sdl,27.68
2022-02-23T10:13:00,sdl,27.71
2022-02-23T10:14:00,sdl,25.01
2022-02-23T10:15:00,sdl,25.11
2022-02-23T10:16:00,sdl,24.45
2022-02-23T10:17:00,sdl,24.04
2022-02-23T10:18:00,sdl,24.00
2022-02-23T10:19:00,sdl,25.37
2022-02-23T10:20:00,sdl,24.51
2022-02-23T10:21:00,sdl,24.23
2022-02-23T10:22:00,sdl,24.87
2022-02-23T10:23:00,sdl,24.96
2022-02-23T10:24:00,sdl,41.37
2022-02-23T10:25:00,sdl,25.01
2022-02-23T10:26:00,sdl,25.19
2022-02-23T10:27:00,sdl,25.13
2022-02-23T10:28:00,sdl,25.30
2022-02-23T10:29:00,sdl,25.43
2022-02-23T10:30:00,sdl,24.58
2022-02-23T10:31:00,sdl,24.68
2022-02-23T10:32:00,sdl,24.55
2022-02-23T10:33:00,sdl,24.52
2022-02-23T10:34:00,sdl,25.47
2022-02-23T10:35:00,sdl,24.77
2022-02-23T10:36:00,sdl,24.62
2022-02-23T10:37:00,sdl,24.68
2022-02-23T10:38:00,sdl,25.03
2022-02-23T10:39:00,sdl,25.01
2022-02-23T10:40:00,sdl,24.78
2022-02-23T10:41:00,sdl,24.78
2022-02-23T10:42:00,sdl,24.80
2022-02-23T10:43:00,sdl,24.85
2022-02-23T10:44:00,sdl,24.66
2022-02-23T10:45:00,sdl,26.90
2022-02-23T10:46:00,sdl,26.83
2022-02-23T10:47:00,sdl,26.58
2022-02-23T10:48:00,sdl,26.59
2022-02-23T10:49:00,sdl,26.59
2022-02-23T10:50:00,sdl,26.60
2022-02-23T10:51:00,sdl,27.07
2022-02-23T10:52:00,sdl,26.72
2022-02-23T10:53:00,sdl,26.56
2022-02-23T10:54:00,sdl,26.67
2022-02-23T10:55:00,sdl,25.98
2022-02-23T10:56:00,sdl,26.51
2022-02-23T10:57:00,sdl,23.79
2022-02-23T10:58:00,sdl,24.13
2022-02-23T10:59:00,sdl,24.14
2022-02-23T11:00:00,sdl,24.02
2022-02-23T11:01:00,sdl,24.00
2022-02-23T11:02:00,sdl,24.07
2022-02-23T11:03:00,sdl,24.36
2022-02-23T11:04:00,sdl,24.47
2022-02-23T11:05:00,sdl,24.30
2022-02-23T11:06:00,sdl,24.20
2022-02-23T11:07:00,sdl,24.34
2022-02-23T11:08:00,sdl,24.27
2022-02-23T11:09:00,sdl,24.70
2022-02-23T11:10:00,sdl,24.25
2022-02-23T11:11:00,sdl,26.42
2022-02-23T11:12:00,sdl,26.43
2022-02-23T11:13:00,sdl,26.84
2022-02-23T11:14:00,sdl,27.45
2022-02-23T11:15:00,sdl,26.86
2022-02-23T11:16:00,sdl,27.07
2022-02-23T11:17:00,sdl,26.93
2022-02-23T11:18:00,sdl,26.92
2022-02-23T11:19:00,sdl,26.97
2022-02-23T11:20:00,sdl,23.83
2022-02-23T11:21:00,sdl,18.48
2022-02-23T11:22:00,sdl,18.65
2022-02-23T11:23:00,sdl,19.17
2022-02-23T11:24:00,sdl,19.05
2022-02-23T11:25:00,sdl,19.05
2022-02-23T11:26:00,sdl,18.64
2022-02-23T11:27:00,sdl,17.83
2022-02-23T11:28:00,sdl,17.90
2022-02-23T11:29:00,sdl,17.78
2022-02-23T11:30:00,sdl,17.84
2022-02-23T11:31:00,sdl,17.77
2022-02-23T11:32:00,sdl,17.43
2022-02-23T11:33:00,sdl,16.04
2022-02-23T11:34:00,sdl,15.64
2022-02-23T11:35:00,sdl,16.40
2022-02-23T11:36:00,sdl,16.98
2022-02-23T11:37:00,sdl,15.77
2022-02-23T11:38:00,sdl,15.87
2022-02-23T11:39:00,sdl,15.82
2022-02-23T11:40:00,sdl,16.02
2022-02-23T11:41:00,sdl,15.83
2022-02-23T11:42:00,sdl,16.72
2022-02-23T11:43:00,sdl,16.05
2022-02-23T11:44:00,sdl,16.11
2022-02-23T11:45:00,sdl,16.00
2022-02-23T11:46:00,sdl,15.98
2022-02-23T11:47:00,sdl,17.46
2022-02-23T11:48:00,sdl,16.36
2022-02-23T11:49:00,sdl,15.91
2022-02-23T11:50:00,sdl,15.65
2022-02-23T11:51:00,sdl,16.17
2022-02-23T11:52:00,sdl,17.48
2022-02-23T11:53:00,sdl,17.06
2022-02-23T11:54:00,sdl,17.07
2022-02-23T11:55:00,sdl,17.05
2022-02-23T11:56:00,sdl,17.00
2022-02-23T11:57:00,sdl,19.70
2022-02-23T11:58:00,sdl,19.62
2022-02-23T11:59:00,sdl,19.84
2022-02-23T12:00:00,sdl,19.25
2022-02-23T12:01:00,sdl,19.33
2022-02-23T12:02:00,sdl,19.32
2022-02-23T12:03:00,sdl,19.27
2022-02-23T12:04:00,sdl,19.11
2022-02-23T12:05:00,sdl,19.22
2022-02-23T12:06:00,sdl,19.26
2022-02-23T12:07:00,sdl,19.29
2022-02-23T12:08:00,sdl,19.21
2022-02-23T12:09:00,sdl,19.16
2022-02-23T12:10:00,sdl,19.24
2022-02-23T12:11:00,sdl,21.02
2022-02-23T12:12:00,sdl,20.32
2022-02-23T12:13:00,sdl,20.38
2022-02-23T12:14:00,sdl,19.36
2022-02-23T12:15:00,sdl,19.69
2022-02-23T12:16:00,sdl,19.27
2022-02-23T12:17:00,sdl,17.48
2022-02-23T12:18:00,sdl,17.84
2022-02-23T12:19:00,sdl,17.66
2022-02-23T12:20:00,sdl,17.23
2022-02-23T12:21:00,sdl,17.92
2022-02-23T12:22:00,sdl,17.98
2022-02-23T12:23:00,sdl,17.45
2022-02-23T12:24:00,sdl,17.48
2022-02-23T12:25:00,sdl,17.53
2022-02-23T12:26:00,sdl,19.03
2022-02-23T12:27:00,sdl,18.62
2022-02-23T12:28:00,sdl,19.67
2022-02-23T12:29:00,sdl,19.45
2022-02-23T12:30:00,sdl,20.56
2022-02-23T12:31:00,sdl,19.08
2022-02-23T12:32:00,sdl,19.12
2022-02-23T12:33:00,sdl,18.46
2022-02-23T12:34:00,sdl,18.87
2022-02-23T12:35:00,sdl,18.76
2022-02-23T12:36:00,sdl,18.71
2022-02-23T12:37:00,sdl,18.69
2022-02-23T12:38:00,sdl,18.64
2022-02-23T12:39:00,sdl,16.23
2022-02-23T12:40:00,sdl,16.21
2022-02-23T12:41:00,sdl,16.29
2022-02-23T12:42:00,sdl,16.29
2022-02-23T12:43:00,sdl,16.37
2022-02-23T12:44:00,sdl,16.32
2022-02-23T12:45:00,sdl,17.01
2022-02-23T12:46:00,sdl,17.06
2022-02-23T12:47:00,sdl,17.14
2022-02-23T12:48:00,sdl,16.57
2022-02-23T12:49:00,sdl,16.56
2022-02-23T12:50:00,sdl,16.53
2022-02-23T12:51:00,sdl,16.52
2022-02-23T12:52:00,sdl,16.55
2022-02-23T12:53:00,sdl,16.63
2022-02-23T12:54:00,sdl,16.66
2022-02-23T12:55:00,sdl,18.05
2022-02-23T12:56:00,sdl,19.01
2022-02-23T12:57:00,sdl,17.25
2022-02-23T12:58:00,sdl,19.53
2022-02-23T12:59:00,sdl,19.31
2022-02-23T13:00:00,sdl,19.85
2022-02-23T13:01:00,sdl,18.93
2022-02-23T13:02:00,sdl,18.91
2022-02-23T13:03:00,sdl,18.89
2022-02-23T13:04:00,sdl,19.31
2022-02-23T13:05:00,sdl,21.38
2022-02-23T13:06:00,sdl,18.86
2022-02-23T13:07:00,sdl,19.30
2022-02-23T13:08:00,sdl,20.31
2022-02-23T13:09:00,sdl,19.82
2022-02-23T13:10:00,sdl,18.74
2022-02-23T13:11:00,sdl,18.70
2022-02-23T13:12:00,sdl,19.04
2022-02-23T13:13:00,sdl,18.67
2022-02-23T13:14:00,sdl,18.89
2022-02-23T13:15:00,sdl,18.57
2022-02-23T13:16:00,sdl,18.66
2022-02-23T13:17:00,sdl,18.57
2022-02-23T13:18:00,sdl,18.72
2022-02-23T13:19:00,sdl,18.77